Location: Clarion
(42.7316°N, 93.7330°W)
Time: 09:25:55
(UTC+00:00)

OAO 2 Rocket - Pass Details

Date: 22 April 2026
Orbit: 668 x 734 km, 35.0° (Epoch: 17 May)

Event Time Altitude Azimuth Distance (km) Brightness Sun altitude
Rises 02:19:15 0° 250° (WSW) 3,119 7.3 -13.4°
Reaches altitude 10° 02:21:51 10° 241° (WSW) 2,190 6.3 -13.8°
Maximum altitude 02:26:29 34° 177° (S) 1,145 4.1 -14.5°
Enters shadow 02:28:43 23° 132° (SE) 1,453 4.3 -14.9°
